ANA566 RJOK-RJTT

Flight info

Callsign ANA566
Flight time 0h 54m
Altitude 35000
Route MUROT MIYAT MERID KEC Y43 MENUR Y21 AKSEL
Aircraft A321/M-SDE3FGHIRWY/LB1

Departure

Time 2026-05-04 12:04
Airport Kochi Ryoma Airport (RJOK)

Arrival

Time 2026-05-04 12:59
Airport Tokyo Haneda International Airport (RJTT)
Time Latitude Longitude Altitude Speed Heading
2026-05-04 11:51 33.54738 133.67300 34 ft 0 kts 39°
2026-05-04 11:55 33.54730 133.67293 34 ft 2 kts 35°
2026-05-04 11:55 33.54717 133.67285 34 ft 2 kts 23°
2026-05-04 11:56 33.54703 133.67279 34 ft 2 kts 14°
2026-05-04 11:56 33.54688 133.67276 34 ft 2 kts
2026-05-04 11:56 33.54673 133.67276 34 ft 2 kts 354°
2026-05-04 11:56 33.54658 133.67279 34 ft 2 kts 345°
2026-05-04 11:57 33.54644 133.67285 33 ft 2 kts 335°
2026-05-04 11:57 33.54630 133.67293 33 ft 2 kts 325°
2026-05-04 11:57 33.54619 133.67305 33 ft 2 kts 315°
2026-05-04 11:57 33.54613 133.67311 33 ft 1 kts 309°
2026-05-04 11:58 33.54611 133.67314 33 ft 0 kts 310°
2026-05-04 12:00 33.54612 133.67314 33 ft 0 kts 310°
2026-05-04 12:00 33.54627 133.67278 33 ft 8 kts 297°
2026-05-04 12:00 33.54663 133.67192 34 ft 14 kts 297°
2026-05-04 12:00 33.54720 133.67081 34 ft 17 kts 309°
2026-05-04 12:01 33.54775 133.67003 34 ft 18 kts 311°
2026-05-04 12:01 33.54862 133.66884 34 ft 19 kts 311°
2026-05-04 12:02 33.55430 133.66078 44 ft 22 kts 280°
2026-05-04 12:03 33.55368 133.65965 44 ft 13 kts 220°
2026-05-04 12:03 33.55295 133.65970 44 ft 11 kts 134°
2026-05-04 12:03 33.55233 133.66055 44 ft 21 kts 130°
2026-05-04 12:03 33.54964 133.66437 40 ft 98 kts 130°
2026-05-04 12:04 33.54366 133.67267 31 ft 162 kts 130°
2026-05-04 12:04 33.53545 133.68427 268 ft 191 kts 129°
2026-05-04 12:04 33.52669 133.69635 964 ft 194 kts 134°
2026-05-04 12:04 33.51558 133.70384 1847 ft 183 kts 168°
2026-05-04 12:05 33.50296 133.70641 2420 ft 189 kts 174°
2026-05-04 12:05 33.48953 133.70888 2823 ft 205 kts 172°
2026-05-04 12:05 33.47488 133.71243 3247 ft 222 kts 168°
2026-05-04 12:05 33.45939 133.71701 3660 ft 240 kts 167°
2026-05-04 12:06 33.44236 133.72252 4052 ft 261 kts 166°
2026-05-04 12:06 33.42484 133.73038 4630 ft 275 kts 146°
2026-05-04 12:06 33.41216 133.74724 5329 ft 277 kts 112°
2026-05-04 12:06 33.40743 133.76927 6098 ft 274 kts 91°
2026-05-04 12:07 33.40540 133.79221 6847 ft 280 kts 91°
2026-05-04 12:07 33.40336 133.81549 7575 ft 285 kts 92°
2026-05-04 12:07 33.40109 133.83937 8308 ft 290 kts 93°
2026-05-04 12:07 33.39861 133.86354 9022 ft 295 kts 94°
2026-05-04 12:08 33.39598 133.88798 9695 ft 301 kts 95°
2026-05-04 12:08 33.39317 133.91339 10207 ft 313 kts 95°
2026-05-04 12:08 33.39026 133.93970 10568 ft 330 kts 95°
2026-05-04 12:08 33.38707 133.96790 10922 ft 348 kts 95°
2026-05-04 12:09 33.38379 133.99710 11226 ft 366 kts 96°
2026-05-04 12:09 33.38026 134.02818 11516 ft 384 kts 96°
2026-05-04 12:09 33.37908 134.03867 11610 ft 389 kts 96°
2026-05-04 12:09 33.37654 134.06108 11860 ft 399 kts 96°
2026-05-04 12:10 33.37269 134.09460 12400 ft 407 kts 97°
2026-05-04 12:10 33.36884 134.12823 13000 ft 412 kts 97°
2026-05-04 12:10 33.36489 134.16272 13600 ft 418 kts 97°
2026-05-04 12:10 33.36094 134.19728 14201 ft 423 kts 97°
2026-05-04 12:11 33.35688 134.23263 14807 ft 427 kts 98°
2026-05-04 12:11 33.35283 134.26776 15433 ft 430 kts 98°
2026-05-04 12:11 33.34869 134.30354 16030 ft 434 kts 99°
2026-05-04 12:11 33.34497 134.33952 16563 ft 440 kts 96°
2026-05-04 12:12 33.34274 134.37640 17123 ft 444 kts 94°
2026-05-04 12:12 33.34096 134.41360 17704 ft 447 kts 94°
2026-05-04 12:12 33.33922 134.45100 18261 ft 450 kts 94°
2026-05-04 12:12 33.33751 134.48824 18692 ft 456 kts 95°
2026-05-04 12:13 33.33564 134.52660 19098 ft 463 kts 95°
2026-05-04 12:14 33.33658 134.80945 21595 ft 509 kts 84°
2026-05-04 12:15 33.34182 134.85159 21906 ft 514 kts 84°
2026-05-04 12:15 33.34703 134.89416 22207 ft 520 kts 84°
2026-05-04 12:15 33.35210 134.93713 22487 ft 526 kts 84°
2026-05-04 12:15 33.35711 134.98022 22790 ft 530 kts 85°
2026-05-04 12:16 33.36226 135.02477 23178 ft 534 kts 86°
2026-05-04 12:16 33.36720 135.06844 23545 ft 537 kts 85°
2026-05-04 12:16 33.37224 135.11267 24164 ft 534 kts 86°
2026-05-04 12:16 33.37730 135.15677 24774 ft 531 kts 86°
2026-05-04 12:17 33.38220 135.20013 25152 ft 534 kts 86°
2026-05-04 12:17 33.38717 135.24437 25499 ft 538 kts 87°
2026-05-04 12:17 33.39214 135.28886 26059 ft 534 kts 87°
2026-05-04 12:17 33.39733 135.33489 26696 ft 531 kts 87°
2026-05-04 12:18 33.40197 135.37662 27084 ft 532 kts 87°
2026-05-04 12:18 33.40682 135.42023 27434 ft 534 kts 87°
2026-05-04 12:18 33.41171 135.46434 27721 ft 538 kts 88°
2026-05-04 12:18 33.41655 135.50871 28195 ft 536 kts 88°
2026-05-04 12:19 33.42139 135.55190 29052 ft 524 kts 89°
2026-05-04 12:19 33.42619 135.59495 29734 ft 518 kts 88°
2026-05-04 12:19 33.43084 135.63796 29905 ft 524 kts 88°
2026-05-04 12:19 33.43555 135.68182 30046 ft 530 kts 89°
2026-05-04 12:20 33.44035 135.72673 30176 ft 535 kts 89°
2026-05-04 12:20 33.44530 135.77144 30315 ft 541 kts 88°
2026-05-04 12:20 33.45179 135.81630 30436 ft 550 kts 83°
2026-05-04 12:20 33.46014 135.86081 30574 ft 555 kts 82°
2026-05-04 12:21 33.46915 135.90610 30809 ft 558 kts 81°
2026-05-04 12:21 33.47818 135.95085 31162 ft 557 kts 82°
2026-05-04 12:21 33.48727 135.99599 31540 ft 555 kts 82°
2026-05-04 12:21 33.49613 136.04068 31892 ft 554 kts 82°
2026-05-04 12:22 33.50502 136.08569 32252 ft 552 kts 82°
2026-05-04 12:22 33.51382 136.13068 32560 ft 552 kts 82°
2026-05-04 12:22 33.52249 136.17532 32881 ft 551 kts 82°
2026-05-04 12:22 33.53108 136.21973 33148 ft 551 kts 82°
2026-05-04 12:23 33.53984 136.26494 33424 ft 550 kts 82°
2026-05-04 12:23 33.54845 136.30975 33659 ft 551 kts 83°
2026-05-04 12:23 33.55701 136.35423 33837 ft 553 kts 82°
2026-05-04 12:23 33.56570 136.39946 33994 ft 555 kts 82°
2026-05-04 12:24 33.57434 136.44421 34163 ft 557 kts 82°
2026-05-04 12:24 33.58297 136.48959 34380 ft 557 kts 82°
2026-05-04 12:24 33.59161 136.53451 34568 ft 558 kts 82°
2026-05-04 12:24 33.60031 136.58014 34753 ft 559 kts 82°
2026-05-04 12:25 33.60887 136.62526 34901 ft 561 kts 82°
2026-05-04 12:25 33.61785 136.67239 34976 ft 562 kts 82°
2026-05-04 12:25 33.63493 136.76248 34985 ft 565 kts 83°
2026-05-04 12:26 33.65231 136.85467 34985 ft 572 kts 82°
2026-05-04 12:26 33.66985 136.94801 34986 ft 577 kts 82°
2026-05-04 12:27 33.68756 137.04265 34980 ft 579 kts 82°
2026-05-04 12:27 33.70506 137.13676 34982 ft 579 kts 82°
2026-05-04 12:28 33.72247 137.23070 34979 ft 579 kts 83°
2026-05-04 12:28 33.73994 137.32535 34980 ft 579 kts 82°
2026-05-04 12:29 33.75719 137.41928 34975 ft 578 kts 82°
2026-05-04 12:29 33.77445 137.51369 34969 ft 578 kts 82°
2026-05-04 12:30 33.79162 137.60792 34965 ft 577 kts 82°
2026-05-04 12:30 33.80883 137.70308 34959 ft 576 kts 83°
2026-05-04 12:31 33.82578 137.79713 34959 ft 576 kts 83°
2026-05-04 12:31 33.84257 137.89046 34952 ft 564 kts 82°
2026-05-04 12:32 33.85084 137.93652 34699 ft 561 kts 83°
2026-05-04 12:32 33.86711 138.02762 34139 ft 553 kts 84°
2026-05-04 12:32 33.87501 138.07222 33862 ft 549 kts 83°
2026-05-04 12:33 33.88277 138.11653 33577 ft 549 kts 84°
2026-05-04 12:33 33.89082 138.16200 33230 ft 548 kts 83°
2026-05-04 12:33 33.89896 138.20697 32722 ft 550 kts 82°
2026-05-04 12:33 33.90894 138.25116 32114 ft 554 kts 77°
2026-05-04 12:34 33.92165 138.29520 31431 ft 558 kts 72°
2026-05-04 12:34 33.93687 138.33774 30703 ft 561 kts 67°
2026-05-04 12:34 33.95467 138.37964 29949 ft 564 kts 63°
2026-05-04 12:34 33.97362 138.42165 29169 ft 566 kts 62°
2026-05-04 12:35 33.99247 138.46292 28401 ft 568 kts 62°
2026-05-04 12:35 34.01138 138.50452 27704 ft 568 kts 62°
2026-05-04 12:35 34.03023 138.54640 27140 ft 565 kts 63°
2026-05-04 12:35 34.04883 138.58813 26578 ft 562 kts 63°
2026-05-04 12:36 34.06714 138.62942 26029 ft 558 kts 62°
2026-05-04 12:36 34.08535 138.67061 25482 ft 555 kts 63°
2026-05-04 12:36 34.10361 138.71199 24942 ft 551 kts 64°
2026-05-04 12:36 34.12198 138.75375 24412 ft 546 kts 63°
2026-05-04 12:37 34.14017 138.79521 23886 ft 542 kts 63°
2026-05-04 12:37 34.15796 138.83568 23373 ft 538 kts 63°
2026-05-04 12:37 34.17521 138.87497 22877 ft 535 kts 62°
2026-05-04 12:37 34.19268 138.91484 22366 ft 532 kts 62°
2026-05-04 12:38 34.20990 138.95406 21868 ft 529 kts 62°
2026-05-04 12:38 34.22685 138.99281 21486 ft 522 kts 62°
2026-05-04 12:38 34.24379 139.03120 21212 ft 512 kts 61°
2026-05-04 12:38 34.26387 139.06665 20909 ft 508 kts 47°
2026-05-04 12:39 34.28763 139.09842 20556 ft 503 kts 43°
2026-05-04 12:39 34.31145 139.12877 20232 ft 499 kts 43°
2026-05-04 12:39 34.33557 139.15921 19891 ft 495 kts 42°
2026-05-04 12:39 34.35903 139.18913 19542 ft 484 kts 42°
2026-05-04 12:40 34.38185 139.21837 19204 ft 470 kts 42°
2026-05-04 12:40 34.40396 139.24678 18855 ft 459 kts 42°
2026-05-04 12:40 34.42565 139.27473 18488 ft 451 kts 42°
2026-05-04 12:40 34.44696 139.30220 18088 ft 443 kts 42°
2026-05-04 12:41 34.46766 139.32895 17688 ft 435 kts 42°
2026-05-04 12:41 34.48821 139.35570 17292 ft 429 kts 43°
2026-05-04 12:41 34.50858 139.38203 16886 ft 422 kts 42°
2026-05-04 12:41 34.52836 139.40744 16542 ft 415 kts 42°
2026-05-04 12:42 34.54809 139.43288 16191 ft 408 kts 42°
2026-05-04 12:42 34.56720 139.45749 15846 ft 402 kts 42°
2026-05-04 12:42 34.58725 139.48084 15481 ft 392 kts 34°
2026-05-04 12:42 34.60819 139.50183 15123 ft 386 kts 32°
2026-05-04 12:43 34.62884 139.52193 14760 ft 380 kts 32°
2026-05-04 12:43 34.64960 139.54190 14400 ft 375 kts 32°
2026-05-04 12:43 34.66980 139.56117 14049 ft 370 kts 32°
2026-05-04 12:43 34.68989 139.58046 13685 ft 365 kts 32°
2026-05-04 12:44 34.70982 139.59956 13336 ft 361 kts 32°
2026-05-04 12:44 34.72938 139.61827 12989 ft 356 kts 32°
2026-05-04 12:44 34.74884 139.63683 12629 ft 351 kts 32°
2026-05-04 12:44 34.76809 139.65514 12271 ft 347 kts 33°
2026-05-04 12:45 34.78702 139.67297 11927 ft 341 kts 32°
2026-05-04 12:45 34.80563 139.69032 11591 ft 335 kts 31°
2026-05-04 12:45 34.82519 139.70552 11226 ft 327 kts 24°
2026-05-04 12:45 34.84499 139.71878 10838 ft 322 kts 22°
2026-05-04 12:46 34.86455 139.73145 10462 ft 318 kts 22°
2026-05-04 12:46 34.88416 139.74388 10075 ft 314 kts 22°
2026-05-04 12:46 34.90353 139.75597 9685 ft 310 kts 22°
2026-05-04 12:46 34.92276 139.76779 9293 ft 305 kts 22°
2026-05-04 12:47 34.94165 139.77918 8900 ft 302 kts 22°
2026-05-04 12:47 34.96055 139.79047 8499 ft 298 kts 22°
2026-05-04 12:47 34.97901 139.80144 8110 ft 294 kts 22°
2026-05-04 12:47 34.99739 139.81224 7715 ft 291 kts 22°
2026-05-04 12:48 35.01558 139.82285 7315 ft 287 kts 22°
2026-05-04 12:48 35.03368 139.83342 6915 ft 284 kts 22°
2026-05-04 12:48 35.05135 139.84374 6519 ft 281 kts 22°
2026-05-04 12:48 35.06908 139.85410 6115 ft 278 kts 22°
2026-05-04 12:49 35.08636 139.86426 5718 ft 275 kts 22°
2026-05-04 12:49 35.10366 139.87451 5316 ft 272 kts 22°
2026-05-04 12:49 35.12064 139.88475 4913 ft 270 kts 22°
2026-05-04 12:49 35.13750 139.89504 4515 ft 268 kts 22°
2026-05-04 12:50 35.15413 139.90518 4141 ft 265 kts 22°
2026-05-04 12:50 35.17017 139.91505 4041 ft 250 kts 22°
2026-05-04 12:50 35.18529 139.92453 4031 ft 234 kts 22°
2026-05-04 12:50 35.19942 139.93350 4037 ft 229 kts 20°
2026-05-04 12:51 35.21426 139.93884 4010 ft 209 kts 354°
2026-05-04 12:51 35.22829 139.93751 4034 ft 199 kts 347°
2026-05-04 12:51 35.24213 139.93536 4042 ft 200 kts 349°
2026-05-04 12:51 35.25608 139.93358 4049 ft 201 kts 350°
2026-05-04 12:52 35.27018 139.93216 4052 ft 201 kts 351°
2026-05-04 12:52 35.28415 139.93100 4050 ft 201 kts 351°
2026-05-04 12:52 35.29803 139.93001 4052 ft 199 kts 351°
2026-05-04 12:52 35.31207 139.92908 4054 ft 199 kts 352°
2026-05-04 12:53 35.32589 139.92825 4050 ft 198 kts 352°
2026-05-04 12:53 35.33971 139.92738 4048 ft 199 kts 352°
2026-05-04 12:53 35.35342 139.92653 4046 ft 198 kts 352°
2026-05-04 12:53 35.36687 139.92531 4045 ft 183 kts 343°
2026-05-04 12:54 35.37829 139.92004 4106 ft 170 kts 328°
2026-05-04 12:54 35.38856 139.91281 3980 ft 169 kts 326°
2026-05-04 12:54 35.39865 139.90549 3741 ft 167 kts 326°
2026-05-04 12:54 35.40863 139.89828 3459 ft 166 kts 327°
2026-05-04 12:55 35.41833 139.89136 3165 ft 155 kts 326°
2026-05-04 12:55 35.42714 139.88513 3038 ft 137 kts 326°
2026-05-04 12:55 35.43544 139.87923 3036 ft 137 kts 326°
2026-05-04 12:55 35.44369 139.87334 2900 ft 139 kts 326°
2026-05-04 12:56 35.45205 139.86740 2487 ft 136 kts 327°
2026-05-04 12:56 35.46029 139.86165 2071 ft 136 kts 327°
2026-05-04 12:56 35.46855 139.85585 1641 ft 136 kts 327°
2026-05-04 12:56 35.47655 139.84979 1281 ft 135 kts 327°
2026-05-04 12:57 35.48449 139.84369 1123 ft 134 kts 329°
2026-05-04 12:57 35.49273 139.83798 1094 ft 136 kts 331°
2026-05-04 12:57 35.50124 139.83243 1014 ft 135 kts 331°
2026-05-04 12:57 35.50962 139.82686 811 ft 135 kts 330°
2026-05-04 12:58 35.51735 139.82092 559 ft 136 kts 328°
2026-05-04 12:58 35.52535 139.81490 405 ft 135 kts 333°
2026-05-04 12:58 35.53375 139.80927 196 ft 136 kts 333°
2026-05-04 12:58 35.54202 139.80347 82 ft 136 kts 333°
2026-05-04 12:59 35.55038 139.79748 9 ft 128 kts 334°
2026-05-04 12:59 35.55556 139.79390 9 ft 49 kts 330°
2026-05-04 12:59 35.55766 139.79158 9 ft 27 kts 302°
2026-05-04 12:59 35.55808 139.79069 11 ft 2 kts 300°
2026-05-04 13:00 35.55810 139.79059 11 ft 0 kts 267°
2026-05-04 13:00 35.55799 139.79040 11 ft 8 kts 231°
2026-05-04 13:00 35.55748 139.78960 13 ft 12 kts 236°
2026-05-04 13:00 35.55706 139.78877 16 ft 9 kts 240°
2026-05-04 13:01 35.55677 139.78813 19 ft 7 kts 242°
2026-05-04 13:01 35.55655 139.78763 21 ft 6 kts 243°
2026-05-04 13:01 35.55653 139.78708 23 ft 6 kts 299°
2026-05-04 13:01 35.55689 139.78671 24 ft 7 kts 329°
2026-05-04 13:02 35.55743 139.78633 23 ft 10 kts 331°
2026-05-04 13:02 35.55796 139.78583 23 ft 7 kts 279°
2026-05-04 13:02 35.55785 139.78537 25 ft 4 kts 238°
2026-05-04 13:02 35.55769 139.78507 26 ft 4 kts 239°
2026-05-04 13:03 35.55766 139.78500 26 ft 0 kts 239°